EW1617 Weather Reports


time (UTC)temp
F
wind
direction
speed
knots
gust
knots
rain 1hr
in
rain 24hr
in
rain mn
in
humidity
%
barometer
mb
20260505195007 63 315 5.2 5.2 0.00 0.00 0.00 91 1016.6
20260505194507 63 225 0.9 3.5 0.00 0.00 0.00 92 1016.6
20260505194007 63 315 0.9 6.1 0.00 0.00 0.00 92 1016.7
20260505193507 63 279 1.7 6.1 0.00 0.00 0.00 91 1016.6
20260505193009 64 270 0.9 2.6 0.00 0.00 0.00 87 1016.6
20260505182506 60 225 4.3 5.2 0.00 0.00 0.00 93 1016.9
20260505182007 60 45 0.9 0.9 0.00 0.00 0.00 93 1016.9
20260505180007 59 45 4.3 4.3 0.00 0.00 0.00 94 1016.9
20260505165006 58 60 1.7 5.2 0.00 0.00 0.00 94 1016.5
20260505164507 58 180 4.3 4.3 0.00 0.00 0.00 94 1016.6
20260505164007 58 0 3.5 4.3 0.00 0.00 0.00 95 1016.4
20260505163508 58 135 2.6 3.5 0.00 0.00 0.00 95 1016.3
20260505162507 58 315 2.6 2.6 0.00 0.00 0.00 95 1016.3
20260505162007 58 158 3.5 4.3 0.00 0.00 0.00 96 1016.3
20260505161507 57 90 2.6 4.3 0.00 0.00 0.00 96 1016.3
20260505161007 57 135 1.7 6.1 0.00 0.00 0.00 96 1016.3
20260505160507 57 158 1.7 4.3 0.00 0.00 0.00 97 1016.3
20260505153007 56 169 1.7 3.5 0.00 0.00 0.00 97 1016.3
20260505152507 55 135 2.6 3.5 0.00 0.00 0.00 97 1016.3
20260505152007 55 120 4.3 4.3 0.00 0.00 0.00 97 1016.3
20260505151506 55 150 5.2 6.1 0.00 0.00 0.00 97 1016.3
20260505151007 55 135 7.0 7.0 0.00 0.00 0.00 97 1016.3
20260505150508 55 248 3.5 4.3 0.00 0.00 0.00 97 1016.3
20260505140508 54 108 4.3 5.2 0.00 0.00 0.00 97 1015.6
20260505125007 54 135 6.1 6.1 0.00 0.00 0.00 97 1015.2
20260505124507 54 144 3.5 4.3 0.00 0.00 0.00 97 1015.2
20260505124007 54 162 5.2 6.1 0.00 0.00 0.00 97 1015.2
20260505123507 54 63 0.9 3.5 0.00 0.00 0.00 97 1015.2
20260505123007 54 117 3.5 6.1 0.00 0.00 0.00 97 1015.2
20260505122507 54 135 5.2 7.0 0.00 0.00 0.00 97 1015.2
20260505122007 54 180 1.7 4.3 0.00 0.00 0.00 97 1015.2
20260505121507 54 180 0.9 3.5 0.00 0.00 0.00 97 1015.2
20260505121007 54 135 2.6 5.2 0.00 0.00 0.00 97 1015.2
20260505120507 54 135 2.6 4.3 0.00 0.00 0.00 97 1015.2
20260505120006 54 135 0.9 4.3 0.00 0.00 0.00 97 1015.2
20260505115508 54 171 2.6 4.3 0.00 0.00 0.00 97 1015.0
20260505115006 54 180 0.9 4.3 0.00 0.00 0.00 97 1015.2
20260505114507 54 126 4.3 5.2 0.00 0.00 0.00 97 1015.2
20260505114007 54 45 1.7 6.1 0.00 0.00 0.00 97 1015.1
20260505113507 54 135 3.5 6.1 0.00 0.00 0.00 97 1015.0
20260505113007 54 171 4.3 6.1 0.00 0.00 0.00 97 1014.9
20260505112507 54 171 3.5 5.2 0.00 0.00 0.00 97 1015.1
20260505112007 54 135 3.5 6.1 0.00 0.00 0.00 97 1015.2
20260505111507 54 135 5.2 6.1 0.00 0.00 0.00 97 1015.0
20260505111007 54 162 2.6 5.2 0.00 0.00 0.00 97 1014.9
20260505110508 54 180 0.9 3.5 0.00 0.00 0.00 97 1014.9
20260505102007 55 135 3.5 5.2 0.00 0.00 0.00 96 1014.6
20260505101508 55 180 5.2 7.0 0.00 0.00 0.00 96 1014.6
20260505101006 55 135 2.6 5.2 0.00 0.00 0.00 96 1014.6
20260505100507 55 108 3.5 5.2 0.00 0.00 0.00 96 1014.6
20260505100007 55 162 4.3 6.1 0.00 0.00 0.00 96 1014.6
20260505095507 55 162 0.9 2.6 0.00 0.00 0.00 96 1014.6
20260505095007 55 153 0.0 4.3 0.00 0.00 0.00 96 1014.6
20260505094507 55 171 3.5 4.3 0.00 0.00 0.00 96 1014.6
20260505094006 55 180 2.6 5.2 0.00 0.00 0.00 95 1014.6
20260505093507 56 180 5.2 5.2 0.00 0.00 0.00 95 1014.4
20260505093007 56 297 2.6 5.2 0.00 0.00 0.00 95 1014.2
20260505092507 56 171 1.7 4.3 0.00 0.00 0.00 95 1014.2
20260505092007 56 180 0.0 0.9 0.00 0.00 0.00 95 1014.2
20260505091507 56 180 0.9 2.6 0.00 0.00 0.00 95 1014.2
20260505091006 56 0 0.9 2.6 0.00 0.00 0.00 95 1014.2
20260505090507 56 144 0.9 1.7 0.00 0.00 0.00 95 1014.2
20260505090007 56 144 5.2 5.2 0.00 0.00 0.00 95 1013.9
20260505085506 56 135 0.0 0.9 0.00 0.00 0.00 95 1013.9
20260505085007 57 162 4.3 5.2 0.00 0.00 0.00 95 1014.2
20260505084507 57 153 3.5 5.2 0.00 0.00 0.00 95 1014.2
20260505084007 57 225 0.9 2.6 0.00 0.00 0.00 95 1013.9
20260505083507 57 180 1.7 4.3 0.00 0.00 0.00 96 1014.2
20260505083007 57 0 0.0 0.0 0.00 0.00 0.00 96 1013.9
20260505082507 57 0 0.0 0.0 0.00 0.00 0.00 96 1013.9
20260505082007 57 0 0.0 0.0 0.00 0.00 0.00 95 1013.9
20260505081507 57 0 0.0 0.0 0.00 0.00 0.00 95 1013.9
20260505081007 57 0 0.0 0.0 0.00 0.00 0.00 95 1013.9
20260505080508 58 0 0.0 0.0 0.00 0.00 0.00 95 1013.9
20260505080006 58 0 0.0 0.0 0.00 0.00 0.00 95 1013.9
20260505075507 58 0 0.0 0.0 0.00 0.00 0.00 95 1013.9
20260505075007 58 0 0.0 0.9 0.00 0.00 0.00 95 1013.9
20260505074507 58 0 0.0 0.9 0.00 0.00 0.00 95 1013.7
20260505074007 58 0 0.9 3.5 0.00 0.00 0.00 95 1013.6
20260505073507 58 0 0.9 2.6 0.00 0.00 0.00 94 1013.6
20260505073007 58 54 1.7 5.2 0.00 0.00 0.00 94 1013.6
20260505072507 58 180 5.2 7.0 0.00 0.00 0.00 94 1013.4
20260505072007 58 144 3.5 6.1 0.00 0.00 0.00 94 1013.2
20260505071507 59 180 1.7 3.5 0.00 0.00 0.00 95 1013.2
20260505071007 59 171 2.6 4.3 0.00 0.00 0.00 95 1013.2
20260505070507 59 72 2.6 4.3 0.00 0.00 0.00 95 1013.2
20260505070007 59 153 1.7 4.3 0.00 0.00 0.00 95 1013.2
20260505065507 58 225 0.0 1.7 0.00 0.00 0.00 96 1013.2
20260505065007 58 225 0.9 2.6 0.00 0.00 0.00 96 1012.9
20260505064507 58 225 0.9 3.5 0.00 0.00 0.00 95 1012.9
20260505064007 58 315 0.0 0.9 0.00 0.00 0.00 95 1012.9
20260505063507 59 315 0.0 0.0 0.00 0.00 0.00 95 1012.9
20260505063008 59 315 0.0 0.0 0.00 0.00 0.00 95 1012.7
20260505062507 59 315 0.0 0.0 0.00 0.00 0.00 94 1012.5
20260505062007 60 315 0.0 0.0 0.00 0.00 0.00 94 1012.5
20260505061507 60 315 0.0 0.0 0.00 0.00 0.00 94 1012.5
20260505061007 60 315 0.0 0.0 0.00 0.00 0.00 94 1012.5
20260505060507 60 315 0.9 3.5 0.00 0.00 0.00 94 1012.2
20260505060007 61 315 0.0 0.0 0.00 0.00 0.00 93 1012.2
20260505055507 61 315 0.0 0.9 0.00 0.00 0.00 93 1012.2
20260505055007 61 189 1.7 3.5 0.00 0.00 0.00 93 1012.2
20260505054507 61 288 0.9 2.6 0.00 0.00 0.00 93 1012.2
20260505054006 62 288 0.9 2.6 0.00 0.00 0.00 93 1012.2
20260505053507 62 315 0.9 3.5 0.00 0.00 0.00 92 1012.2
20260505053008 62 315 0.9 2.6 0.00 0.00 0.00 92 1012.2
20260505052507 63 279 1.7 4.3 0.00 0.00 0.00 92 1012.2
20260505052006 63 289 0.9 2.6 0.00 0.00 0.00 92 1012.2
20260505051507 63 182 3.5 6.1 0.00 0.00 0.00 92 1011.9
20260505051007 64 243 2.6 4.3 0.00 0.00 0.00 92 1011.9
20260505050507 64 315 0.9 3.5 0.00 0.00 0.00 91 1011.9
20260505041507 67 171 3.5 4.3 0.00 0.00 0.00 88 1011.2
20260505041007 67 135 3.5 4.3 0.00 0.00 0.00 87 1011.2
20260505040507 68 236 1.7 4.3 0.00 0.00 0.00 90 1010.8
20260505040007 68 169 3.5 4.3 0.00 0.00 0.00 90 1010.8
20260505035506 68 169 4.3 5.2 0.00 0.00 0.00 90 1010.8
20260505035007 68 158 1.7 4.3 0.00 0.00 0.00 91 1010.8
20260505034507 68 180 5.2 7.8 0.00 0.00 0.00 90 1010.5
20260505034008 69 189 5.2 6.1 0.00 0.00 0.00 90 1010.5
20260505033507 69 126 4.3 4.3 0.00 0.00 0.00 90 1010.3
20260505033007 69 144 4.3 7.0 0.00 0.00 0.00 90 1010.2
20260505032508 69 171 5.2 6.1 0.00 0.00 0.00 89 1010.2
20260505032007 69 144 2.6 5.2 0.00 0.00 0.00 88 1010.2
20260505031506 70 126 1.7 5.2 0.00 0.00 0.00 88 1010.1
20260505031008 70 135 2.6 4.3 0.00 0.00 0.00 87 1009.8
20260505030507 70 158 2.6 3.5 0.00 0.00 0.00 85 1009.8
20260505030007 70 144 5.2 8.7 0.00 0.00 0.00 84 1009.8
20260505025507 71 117 6.1 7.0 0.00 0.00 0.00 82 1009.8
20260505025007 71 90 6.1 7.0 0.00 0.00 0.00 82 1009.8
20260505024506 71 135 4.3 4.3 0.00 0.00 0.00 81 1009.8
20260505021506 72 135 5.2 6.1 0.00 0.00 0.00 75 1009.8
20260505021007 73 180 6.1 8.7 0.00 0.00 0.00 73 1009.8
20260505020507 73 126 7.0 7.8 0.00 0.00 0.00 73 1009.8
20260505020007 73 171 4.3 7.8 0.00 0.00 0.00 74 1009.8
20260505015507 73 171 5.2 6.1 0.00 0.00 0.00 73 1009.8
20260505015007 73 144 5.2 6.1 0.00 0.00 0.00 72 1009.8
20260505014507 73 162 7.0 7.0 0.00 0.00 0.00 71 1009.8
20260505014007 73 171 5.2 7.0 0.00 0.00 0.00 70 1009.8
20260505013507 73 169 6.1 7.0 0.00 0.00 0.00 69 1009.8
20260505013007 74 191 5.2 6.1 0.00 0.00 0.00 69 1009.8
20260505012507 74 180 6.1 6.1 0.00 0.00 0.00 68 1009.8
20260505012007 74 117 4.3 8.7 0.00 0.00 0.00 67 1009.8
20260505011507 75 135 7.0 8.7 0.00 0.00 0.00 65 1010.0
20260505011006 76 126 7.0 7.8 0.00 0.00 0.00 63 1009.8
20260505010507 76 101 5.2 6.1 0.00 0.00 0.00 61 1009.8
20260505010007 77 162 6.1 7.0 0.00 0.00 0.00 59 1009.8
20260505005507 78 81 4.3 5.2 0.00 0.00 0.00 59 1009.8
20260505005007 78 135 5.2 6.1 0.00 0.00 0.00 58 1010.1
20260505004508 78 191 6.1 7.0 0.00 0.00 0.00 58 1010.2
20260505004007 79 117 6.1 9.6 0.00 0.00 0.00 55 1010.2
20260505003507 79 153 5.2 7.0 0.00 0.00 0.00 56 1010.2
20260505003007 79 126 5.2 7.8 0.00 0.00 0.00 55 1010.2
20260505002507 79 81 4.3 5.2 0.00 0.00 0.00 55 1010.2
20260505002006 80 117 6.1 7.8 0.00 0.00 0.00 54 1010.2
20260505001507 79 171 4.3 5.2 0.00 0.00 0.00 55 1010.2
20260505001007 80 117 6.1 7.0 0.00 0.00 0.00 54 1010.2
20260505000507 80 117 5.2 6.1 0.00 0.00 0.00 54 1010.2
20260505000007 80 145 4.3 6.1 0.00 0.00 0.00 54 1010.2
20260504235507 79 101 5.2 9.6 0.00 0.00 0.00 55 1010.2
20260504235007 79 144 4.3 6.1 0.00 0.00 0.00 55 1010.2
20260504234506 78 144 3.5 5.2 0.00 0.00 0.00 55 1010.2
20260504234008 78 162 6.1 7.8 0.00 0.00 0.00 55 1010.2
20260504233507 78 144 4.3 7.0 0.00 0.00 0.00 56 1010.2
20260504233007 78 117 5.2 7.0 0.00 0.00 0.00 56 1010.5
20260504232507 78 180 6.1 6.1 0.00 0.00 0.00 55 1010.5
20260504232006 78 153 7.0 8.7 0.00 0.00 0.00 54 1010.5
20260504231507 78 153 5.2 5.2 0.00 0.00 0.00 54 1010.5
20260504231008 79 72 6.1 6.1 0.00 0.00 0.00 53 1010.5
20260504230506 79 144 5.2 7.0 0.00 0.00 0.00 53 1010.5
20260504230007 79 153 5.2 7.0 0.00 0.00 0.00 53 1010.5
20260504225507 79 108 5.2 6.1 0.00 0.00 0.00 53 1010.8
20260504225007 79 162 4.3 6.1 0.00 0.00 0.00 54 1010.8
20260504224507 78 135 4.3 6.1 0.00 0.00 0.00 54 1010.8
20260504224007 77 135 4.3 5.2 0.00 0.00 0.00 55 1010.8
20260504223507 77 189 7.0 8.7 0.00 0.00 0.00 54 1010.8
20260504223007 78 171 5.2 7.0 0.00 0.00 0.00 53 1011.1
20260504222507 78 108 4.3 6.1 0.00 0.00 0.00 54 1011.2
20260504222007 78 198 6.1 7.0 0.00 0.00 0.00 56 1011.2
20260504221506 77 113 4.3 7.0 0.00 0.00 0.00 54 1011.2
20260504221007 77 126 5.2 7.0 0.00 0.00 0.00 55 1011.2
20260504220507 77 144 2.6 4.3 0.00 0.00 0.00 56 1011.5
20260504220007 76 198 5.2 7.0 0.00 0.00 0.00 57 1011.5
20260504215507 75 135 4.3 5.2 0.00 0.00 0.00 57 1011.5
20260504215007 75 189 6.1 9.6 0.00 0.00 0.00 56 1011.5
20260504214506 75 72 6.1 9.6 0.00 0.00 0.00 58 1011.5
20260504214008 75 171 7.0 7.8 0.00 0.00 0.00 57 1011.6
20260504213507 75 162 4.3 5.2 0.00 0.00 0.00 57 1011.9
20260504213007 74 198 5.2 7.0 0.00 0.00 0.00 60 1011.9
20260504212507 74 126 6.1 7.8 0.00 0.00 0.00 59 1011.9
20260504212007 74 169 6.1 7.0 0.00 0.00 0.00 59 1011.9
20260504211507 74 207 4.3 7.0 0.00 0.00 0.00 60 1011.9
20260504211008 73 198 5.2 6.1 0.00 0.00 0.00 62 1012.1
20260504210506 72 162 4.3 5.2 0.00 0.00 0.00 66 1012.2
20260504210007 71 108 3.5 6.1 0.00 0.00 0.00 66 1012.3
20260504205507 70 135 6.1 7.0 0.00 0.00 0.00 67 1012.5
20260504205007 70 162 7.0 7.8 0.00 0.00 0.00 67 1012.5
20260504204507 70 153 7.0 7.8 0.00 0.00 0.00 66 1012.5
20260504204006 71 108 7.0 8.7 0.00 0.00 0.00 67 1012.6
20260504203507 71 207 6.1 8.7 0.00 0.00 0.00 67 1012.7
20260504203007 70 144 5.2 7.0 0.00 0.00 0.00 70 1012.9
20260504202507 70 108 6.1 7.0 0.00 0.00 0.00 68 1012.9
20260504202007 70 162 5.2 7.0 0.00 0.00 0.00 70 1012.9
20260504201507 70 180 6.1 7.0 0.00 0.00 0.00 70 1012.9
20260504201007 70 162 5.2 6.1 0.00 0.00 0.00 69 1012.9
20260504200507 70 144 6.1 7.0 0.00 0.00 0.00 71 1012.9
20260504200007 69 190 5.2 7.8 0.00 0.00 0.00 73 1013.1
20260504195507 68 153 5.2 6.1 0.00 0.00 0.00 77 1013.2